This is the latest recevied weather packets stored in our database for station/object KM4RT-13. If no packets are shown the sender has not sent any weather packets the latest 10 day(s).
| Time | Temp. | Humidity | Pressure | Rain* | Wind** | Luminosity | Snow |
|---|---|---|---|---|---|---|---|
| 1777733555 | 16.11° C | 54% | 1016.1 hPa | 0 mm | - | 543 W/m² | - |
| 1777733251 | 16.11° C | 56% | 1016.1 hPa | 0 mm | - | 530 W/m² | - |
| 1777732948 | 16.11° C | 61% | 1016.1 hPa | 0 mm | - | 517 W/m² | - |
| 1777732644 | 16.11° C | 59% | 1016.1 hPa | 0 mm | - | 501 W/m² | - |
| 1777732342 | 15.56° C | 56% | 1016.1 hPa | 0 mm | - | 487 W/m² | - |
| 1777732039 | 15.56° C | 62% | 1015.8 hPa | 0 mm | - | 472 W/m² | - |
| 1777731736 | 15.56° C | 61% | 1015.8 hPa | 0 mm | - | 456 W/m² | - |
| 1777731433 | 15.56° C | 65% | 1016 hPa | 0 mm | - | 441 W/m² | - |
| 1777731131 | 15° C | 65% | 1016 hPa | 0 mm | - | 426 W/m² | - |
| 1777730526 | 14.44° C | 67% | 1015.8 hPa | 0 mm | - | 394 W/m² | - |
| 1777730221 | 14.44° C | 68% | 1015.8 hPa | 0 mm | - | 380 W/m² | - |
| 1777729919 | 13.89° C | 70% | 1015.7 hPa | 0 mm | - | 364 W/m² | - |
| 1777729614 | 13.89° C | 66% | 1015.8 hPa | 0 mm | - | 348 W/m² | - |
| 1777729312 | 13.89° C | 68% | 1015.9 hPa | 0 mm | - | 332 W/m² | - |
| 1777729008 | 13.89° C | 69% | 1015.8 hPa | 0 mm | - | 316 W/m² | - |
| 1777728705 | 13.33° C | 71% | 1015.9 hPa | 0 mm | - | 302 W/m² | - |
| 1777728402 | 13.33° C | 68% | 1015.7 hPa | 0 mm | - | 290 W/m² | - |
| 1777728099 | 12.78° C | 71% | 1015.6 hPa | 0 mm | - | 270 W/m² | - |
| 1777727796 | 12.78° C | 79% | 1015.7 hPa | 0 mm | - | 253 W/m² | - |
| 1777727493 | 12.78° C | 85% | 1015.7 hPa | 0 mm | - | 237 W/m² | - |
| 1777727190 | 12.22° C | 88% | 1015.5 hPa | 0 mm | - | 222 W/m² | - |
| 1777726888 | 11.67° C | 90% | 1015.5 hPa | 0 mm | - | 187 W/m² | - |
| 1777726584 | 11.11° C | 92% | 1015.8 hPa | 0 mm | - | 159 W/m² | - |
| 1777726282 | 11.11° C | 92% | 1015.3 hPa | 0 mm | - | 141 W/m² | - |
| 1777725978 | 11.11° C | 92% | 1015.4 hPa | 0 mm | - | 124 W/m² | - |
* Rain latest hour (hover to see other rain measurements)
** Current wind speed in m/s (hover to see current wind gust speed)